Location: Franzen
(48.6167°N, 15.3833°E)
Time: 08:58:01
(UTC+00:00)

Altair - Pass Details

Date: 03 August 2021
Orbit: 1501 x 1682 km, 47.2° (Epoch: 20 September)

Event Time Altitude Azimuth Distance (km) Brightness Sun altitude
Rises 03:10:48 0° 269° (W) 4,705 9.5 -4.3°
Reaches altitude 10° 03:13:53 10° 269° (W) 3,703 9.0 -3.9°
Maximum altitude 03:23:12 83° 184° (S) 1,521 7.5 -2.6°
Drops below altitude 10° 03:32:22 10° 98° (E) 3,654 10.4 -1.3°
Sets 03:35:23 0° 98° (E) 4,640 11.0 -0.8°
